Eau Claire, WI

11:07 AM CST on February 19, 2018 (GMT -0600)
Chippewa Valley Regional

Weather History for KEAU - April, 2014

Change the Weather History Date:

Wednesday, April 2, 2014

  Actual Average Record
Temperature  
Mean Temperature 31 °F 39 °F  
Max Temperature 44 °F 50 °F 76 °F (1963)
Min Temperature 18 °F 29 °F 4 °F (1924)
Degree Days  
Heating Degree Days 34 26  
Month to date heating degree days 70 52  
Since 1 July heating degree days 8246 7116  
Cooling Degree Days 0 0  
Month to date cooling degree days 0 0  
Year to date cooling degree days 0 0  
Moisture  
Dew Point 19 °F    
Average Humidity 65    
Maximum Humidity 92    
Minimum Humidity 38    
Precipitation  
Precipitation T in 0.08 in 1.37 in (1967)
Month to date precipitation 0.01 0.15  
Year to date precipitation 3.94 3.58  
Snow  
Snow T in 0.20 in 5.20 in (2002)
Month to date snowfall T 0.3  
Since 1 July snowfall 65.7 45.2  
Snow Depth T in    
Sea Level Pressure  
Sea Level Pressure 30.17 in    
Wind  
Wind Speed 6 mph (NE)    
Max Wind Speed 15 mph    
Max Gust Speed 17 mph    
Visibility 10 miles    
Events      
T = Trace of Precipitation, MM = Missing Value Source: NWS Daily Summary

Daily Weather History Graph

Daily Weather History Graph

Search for Another Location

Airport or City:

Trip Planner

Search our weather history database for the weather conditions in past years. The results will help you decide how hot, cold, wet, or windy it might be!

Date:

Astronomy

Apr. 02, 2014 Rise Set
Actual Time 6:44 AM CDT 7:34 PM CDT
Civil Twilight 6:15 AM CDT 8:04 PM CDT
Nautical Twilight 5:39 AM CDT 8:40 PM CDT
Astronomical Twilight 5:03 AM CDT 9:17 PM CDT
Moon 8:22 AM CDT (4/2) 11:06 PM CDT (4/2)
Length of Visible Light 13h 49m
Length of Day
12h 50m
Waxing Crescent, 10% of the Moon is Illuminated
Apr 2
Waxing Crescent
Apr 7
First Quarter
Apr 15
Full
Apr 22
Last Quarter
Apr 29
New

Hourly Weather History & Observations

Time (CDT) Temp. Windchill Dew Point Humidity Pressure Visibility Wind Dir Wind Speed Gust Speed Precip Events Conditions
12:56 AM 26.1 °F 20.5 °F 19.0 °F 75% 30.14 in 10.0 mi WNW 4.6 mph - N/A   Clear
1:56 AM 25.0 °F - 18.0 °F 75% 30.15 in 10.0 mi Calm Calm - N/A   Clear
2:56 AM 24.1 °F 18.2 °F 18.0 °F 77% 30.15 in 10.0 mi NNW 4.6 mph - N/A   Clear
3:56 AM 23.0 °F - 17.1 °F 78% 30.16 in 10.0 mi Calm Calm - N/A   Clear
4:56 AM 21.0 °F 16.2 °F 17.1 °F 85% 30.17 in 10.0 mi NNE 3.5 mph - N/A   Clear
5:56 AM 18.0 °F 11.1 °F 15.1 °F 88% 30.18 in 10.0 mi North 4.6 mph - N/A   Clear
7:56 AM 24.1 °F - 19.0 °F 81% 30.21 in 10.0 mi Calm Calm - N/A   Clear
8:56 AM 27.0 °F 20.5 °F 18.0 °F 69% 30.24 in 10.0 mi ESE 5.8 mph - N/A   Clear
9:56 AM 30.0 °F 22.4 °F 17.1 °F 59% 30.24 in 10.0 mi ENE 8.1 mph - N/A   Clear
10:56 AM 33.1 °F 30.0 °F 18.0 °F 54% 30.23 in 10.0 mi NE 3.5 mph - N/A   Clear
11:56 AM 36.0 °F 29.6 °F 19.0 °F 50% 30.23 in 10.0 mi ENE 8.1 mph - N/A   Clear
12:56 PM 37.9 °F 34.4 °F 19.0 °F 47% 30.22 in 10.0 mi Variable 4.6 mph - N/A   Clear
1:56 PM 39.0 °F 32.8 °F 19.0 °F 45% 30.21 in 10.0 mi ENE 9.2 mph - N/A   Clear
2:56 PM 41.0 °F 34.7 °F 19.0 °F 41% 30.18 in 10.0 mi East 10.4 mph - N/A   Clear
3:56 PM 43.0 °F 36.8 °F 19.9 °F 40% 30.16 in 10.0 mi East 11.5 mph - N/A   Clear
4:56 PM 43.0 °F 36.8 °F 19.9 °F 40% 30.16 in 10.0 mi ENE 11.5 mph - N/A   Clear
5:56 PM 41.0 °F 34.3 °F 18.0 °F 40% 30.16 in 10.0 mi ENE 11.5 mph - N/A   Clear
6:56 PM 39.9 °F 33.4 °F 19.9 °F 45% 30.14 in 10.0 mi ENE 10.4 mph - N/A   Clear
7:56 PM 39.0 °F 33.4 °F 19.9 °F 46% 30.13 in 10.0 mi NE 8.1 mph - N/A   Overcast
8:56 PM 37.9 °F 33.5 °F 21.0 °F 51% 30.14 in 10.0 mi East 5.8 mph - N/A   Overcast
9:56 PM 37.0 °F 31.6 °F 21.9 °F 54% 30.13 in 10.0 mi NE 6.9 mph - N/A   Overcast
11:56 PM 37.0 °F 32.4 °F 23.0 °F 57% 30.12 in 10.0 mi NE 5.8 mph - N/A   Overcast